Weather in Ponte de Lima

Portugal     41°46′03″N   8°34′38″W
В апреле 2022 года жителям России запретили посещать сайт meteo.paraplan.net по решению Генеральной прокуратуры. Аудитория сайта уменьшилась в 10 раз. Владельцы сайта не видят смысла в поддержке погодного сервера в таких условиях. Сайт будет закрыт в октябре.
temp.,
°C
wind,
m/s
gust,
m/s
humid.,
%
clouds,
%
prec.,
mm/h
press.,
hPa
HPBL,
m
30 september, fri
fri3001:00+10n23910 0.0 101650
04:00+9nne22911 0.0 101744
07:00+8nne239012 0.0 101854
10:00+14n235987 0.0 1019483
13:00+19nnw2340100 0.0 10191214
16:00+21nnw343870 0.0 10181396
19:00+15nnw2269100 0.0 101950
22:00+13n2282100 0.0 102148
1 october, sat
sat101:00+12nne2184100 0.0 102116
04:00+12nne2281100 0.0 102221
07:00+11ne218225 0.0 102312
10:00+18n015721 0.0 1024282
13:00+24wnw11435 0.0 1024976
16:00+25wsw2142100 0.0 10231251
19:00+18w2277100 0.0 102421
22:00+15n2289100 0.0 102523
2 october, sun
sun201:00+14nne2289100 0.0 102534
04:00+14ne118494 0.0 102411
07:00+14ne2181100 0.0 102513
10:00+20nne1255100 0.0 1024192
13:00+27sw1133100 0.0 1023946
16:00+29wnw112667 0.0 10211300
19:00+21nnw2251100 0.0 102115
22:00+18nne2259100 0.0 102132
3 october, mon
mon301:00+18ne2250100 0.0 102020
04:00+18ne22465 0.0 101927
07:00+17ene22464 0.0 101920
10:00+24e11340 0.0 1019147
13:00+31sw22220 0.0 1018969
16:00+31wsw32211 0.0 10171506
19:00+22wnw114590 0.0 101811
22:00+19ene11510 0.0 101911
4 october, tue
tue401:00+18e11545 0.0 101911
04:00+17ene11545 0.0 101811
07:00+16ene11525 0.0 101811
10:00+22s113820 0.0 1019201
13:00+28sw21274 0.0 1019813
16:00+28wsw22285 0.0 10171066
19:00+20wsw1159100 0.0 101811
22:00+17ene116692 0.0 101911